| time (UTC) | temp F | wind direction | speed knots | gust knots | rain 1hr in | rain 24hr in | rain mn in | humidity % | barometer mb |
| 20260504050721 | 51 | 100 | 0.0 | 0.0 | 0.00 | 0.00 | 0.00 | 80 | 1017.3 |
| 20260504050218 | 51 | 94 | 0.9 | 0.9 | 0.00 | 0.00 | 0.00 | 80 | 1017.3 |
| 20260504045715 | 51 | 120 | 0.0 | 0.0 | 0.00 | 0.00 | 0.00 | 80 | 1017.2 |
| 20260504045210 | 51 | 96 | 0.0 | 0.0 | 0.00 | 0.00 | 0.00 | 80 | 1017.2 |
| 20260504044708 | 51 | 90 | 0.0 | 0.9 | 0.00 | 0.00 | 0.00 | 79 | 1017.3 |
| 20260504044205 | 51 | 120 | 0.0 | 0.9 | 0.00 | 0.00 | 0.00 | 78 | 1017.1 |
| 20260504043702 | 52 | 109 | 0.0 | 0.0 | 0.00 | 0.00 | 0.00 | 77 | 1017.3 |
| 20260504043158 | 52 | 99 | 0.0 | 0.0 | 0.00 | 0.00 | 0.00 | 77 | 1017.2 |
| 20260504042656 | 52 | 132 | 0.9 | 1.7 | 0.00 | 0.00 | 0.00 | 76 | 1017.3 |
| 20260504042152 | 52 | 109 | 0.9 | 0.9 | 0.00 | 0.00 | 0.00 | 75 | 1017.4 |
| 20260504041648 | 52 | 101 | 0.0 | 0.0 | 0.00 | 0.00 | 0.00 | 75 | 1017.2 |
| 20260504041144 | 52 | 124 | 0.9 | 0.9 | 0.00 | 0.00 | 0.00 | 75 | 1017.2 |
| 20260504040642 | 52 | 110 | 0.0 | 0.9 | 0.00 | 0.00 | 0.00 | 74 | 1017.3 |
| 20260504040139 | 52 | 95 | 0.0 | 0.9 | 0.00 | 0.00 | 0.00 | 73 | 1017.4 |
| 20260504035635 | 52 | 128 | 0.0 | 0.9 | 0.00 | 0.00 | 0.00 | 72 | 1017.2 |
| 20260504035132 | 52 | 92 | 1.7 | 2.6 | 0.00 | 0.00 | 0.00 | 71 | 1017.2 |
| 20260504034630 | 52 | 106 | 0.0 | 0.0 | 0.00 | 0.00 | 0.00 | 71 | 1017.1 |
| 20260504034126 | 52 | 164 | 0.9 | 1.7 | 0.00 | 0.00 | 0.00 | 72 | 1017.0 |
| 20260504033624 | 50 | 78 | 0.0 | 0.9 | 0.00 | 0.00 | 0.00 | 74 | 1016.9 |
| 20260504033121 | 48 | 111 | 0.0 | 0.0 | 0.00 | 0.00 | 0.00 | 83 | 1017.0 |
| 20260504032618 | 48 | 103 | 0.9 | 0.9 | 0.00 | 0.00 | 0.00 | 90 | 1016.9 |
| 20260504032115 | 47 | 100 | 0.0 | 0.0 | 0.00 | 0.00 | 0.00 | 92 | 1017.0 |
| 20260504031612 | 47 | 101 | 0.0 | 0.0 | 0.00 | 0.00 | 0.00 | 91 | 1016.8 |
| 20260504031108 | 47 | 101 | 0.0 | 0.0 | 0.00 | 0.00 | 0.00 | 90 | 1016.8 |
| 20260504030605 | 47 | 101 | 0.0 | 0.0 | 0.00 | 0.00 | 0.00 | 90 | 1016.6 |
| 20260504025559 | 47 | 101 | 0.0 | 0.0 | 0.00 | 0.00 | 0.00 | 89 | 1016.7 |
| 20260504025056 | 47 | 101 | 0.0 | 0.0 | 0.00 | 0.00 | 0.00 | 88 | 1016.7 |
| 20260504024553 | 47 | 101 | 0.0 | 0.0 | 0.00 | 0.00 | 0.00 | 88 | 1016.6 |
| 20260504024050 | 47 | 101 | 0.0 | 0.0 | 0.00 | 0.00 | 0.00 | 87 | 1016.8 |
| 20260504023546 | 47 | 101 | 0.0 | 0.0 | 0.00 | 0.00 | 0.00 | 87 | 1016.7 |
| 20260504023042 | 47 | 101 | 0.0 | 0.0 | 0.00 | 0.00 | 0.00 | 86 | 1016.6 |
| 20260504022538 | 47 | 101 | 0.0 | 0.0 | 0.00 | 0.00 | 0.00 | 85 | 1016.8 |
| 20260504022035 | 48 | 101 | 0.0 | 0.0 | 0.00 | 0.00 | 0.00 | 85 | 1016.9 |
| 20260504021532 | 48 | 101 | 0.0 | 0.0 | 0.00 | 0.00 | 0.00 | 84 | 1016.8 |
| 20260504021029 | 48 | 101 | 0.0 | 0.0 | 0.00 | 0.00 | 0.00 | 84 | 1016.9 |
| 20260504020526 | 48 | 102 | 0.0 | 0.0 | 0.00 | 0.00 | 0.00 | 83 | 1016.8 |
| 20260504020023 | 48 | 102 | 0.0 | 0.0 | 0.00 | 0.00 | 0.00 | 82 | 1016.8 |
| 20260504015519 | 48 | 102 | 0.0 | 0.0 | 0.00 | 0.00 | 0.00 | 82 | 1016.8 |
| 20260504015015 | 49 | 102 | 0.0 | 0.0 | 0.00 | 0.00 | 0.00 | 80 | 1017.0 |
| 20260504014511 | 49 | 102 | 0.0 | 0.0 | 0.00 | 0.00 | 0.00 | 78 | 1016.8 |
| 20260504014008 | 49 | 102 | 0.0 | 0.0 | 0.00 | 0.00 | 0.00 | 78 | 1016.8 |
| 20260504013506 | 49 | 102 | 0.0 | 0.0 | 0.00 | 0.00 | 0.00 | 76 | 1016.6 |
| 20260504013003 | 49 | 102 | 0.0 | 0.0 | 0.00 | 0.00 | 0.00 | 75 | 1016.5 |
| 20260504012501 | 50 | 102 | 0.0 | 0.0 | 0.00 | 0.00 | 0.00 | 74 | 1016.7 |
| 20260504011958 | 49 | 105 | 0.0 | 0.0 | 0.00 | 0.00 | 0.00 | 71 | 1016.6 |
| 20260504011454 | 50 | 105 | 0.0 | 0.0 | 0.00 | 0.00 | 0.00 | 71 | 1016.4 |
| 20260504010950 | 50 | 105 | 0.0 | 0.0 | 0.00 | 0.00 | 0.00 | 71 | 1016.3 |
| 20260504010447 | 51 | 105 | 0.0 | 0.0 | 0.00 | 0.00 | 0.00 | 71 | 1016.3 |
| 20260504005942 | 51 | 105 | 0.0 | 0.0 | 0.00 | 0.00 | 0.00 | 69 | 1016.2 |
| 20260504005439 | 51 | 105 | 0.0 | 0.0 | 0.00 | 0.00 | 0.00 | 65 | 1016.2 |
| 20260504004937 | 51 | 105 | 0.0 | 0.0 | 0.00 | 0.00 | 0.00 | 63 | 1016.0 |
| 20260504004434 | 52 | 105 | 0.0 | 0.0 | 0.00 | 0.00 | 0.00 | 62 | 1016.2 |
| 20260504003931 | 52 | 106 | 0.0 | 0.0 | 0.00 | 0.00 | 0.00 | 61 | 1015.9 |
| 20260504003427 | 52 | 106 | 0.0 | 0.0 | 0.00 | 0.00 | 0.00 | 61 | 1016.0 |
| 20260504002924 | 53 | 106 | 0.0 | 0.0 | 0.00 | 0.00 | 0.00 | 61 | 1015.9 |
| 20260504002421 | 53 | 106 | 0.0 | 0.0 | 0.00 | 0.00 | 0.00 | 60 | 1015.7 |
| 20260504001919 | 54 | 106 | 0.0 | 0.0 | 0.00 | 0.00 | 0.00 | 59 | 1015.9 |
| 20260504001416 | 54 | 106 | 0.0 | 0.0 | 0.00 | 0.00 | 0.00 | 58 | 1015.6 |
| 20260504000912 | 55 | 106 | 0.0 | 0.0 | 0.00 | 0.00 | 0.00 | 55 | 1015.7 |
| 20260504000410 | 55 | 106 | 0.0 | 0.0 | 0.00 | 0.00 | 0.00 | 54 | 1015.6 |
| 20260503235907 | 56 | 106 | 0.0 | 0.0 | 0.00 | 0.00 | 0.00 | 52 | 1015.8 |
| 20260503235405 | 57 | 106 | 0.0 | 0.0 | 0.00 | 0.00 | 0.00 | 52 | 1015.6 |
| 20260503234902 | 57 | 106 | 0.0 | 0.0 | 0.00 | 0.00 | 0.00 | 53 | 1015.5 |
| 20260503234359 | 58 | 106 | 0.0 | 0.0 | 0.00 | 0.00 | 0.00 | 51 | 1015.3 |
| 20260503233857 | 58 | 106 | 0.0 | 0.0 | 0.00 | 0.00 | 0.00 | 49 | 1015.6 |
| 20260503233354 | 59 | 94 | 0.0 | 0.0 | 0.00 | 0.00 | 0.00 | 47 | 1015.6 |
| 20260503232850 | 59 | 94 | 0.0 | 0.0 | 0.00 | 0.00 | 0.00 | 44 | 1015.4 |
| 20260503232347 | 60 | 95 | 0.0 | 0.9 | 0.00 | 0.00 | 0.00 | 44 | 1015.3 |
| 20260503231845 | 60 | 110 | 0.0 | 0.0 | 0.00 | 0.00 | 0.00 | 43 | 1015.4 |
| 20260503231342 | 60 | 111 | 0.9 | 0.9 | 0.00 | 0.00 | 0.00 | 41 | 1015.4 |
| 20260503230838 | 61 | 118 | 0.0 | 0.0 | 0.00 | 0.00 | 0.00 | 40 | 1015.3 |
| 20260503230335 | 62 | 92 | 0.0 | 0.0 | 0.00 | 0.00 | 0.00 | 41 | 1015.4 |
| 20260503225833 | 64 | 185 | 0.9 | 0.9 | 0.00 | 0.00 | 0.00 | 38 | 1015.1 |
| 20260503225328 | 64 | 173 | 0.9 | 0.9 | 0.00 | 0.00 | 0.00 | 36 | 1015.2 |
| 20260503224825 | 64 | 91 | 0.9 | 0.9 | 0.00 | 0.00 | 0.00 | 36 | 1015.4 |
| 20260503224322 | 65 | 131 | 0.0 | 0.9 | 0.00 | 0.00 | 0.00 | 36 | 1015.4 |
| 20260503223820 | 65 | 91 | 0.0 | 0.9 | 0.00 | 0.00 | 0.00 | 37 | 1015.4 |
| 20260503223317 | 64 | 82 | 0.9 | 0.9 | 0.00 | 0.00 | 0.00 | 36 | 1015.5 |
| 20260503222813 | 64 | 180 | 0.9 | 0.9 | 0.00 | 0.00 | 0.00 | 36 | 1015.3 |
| 20260503222312 | 64 | 313 | 0.9 | 1.7 | 0.00 | 0.00 | 0.00 | 36 | 1015.5 |
| 20260503221809 | 64 | 146 | 0.9 | 0.9 | 0.00 | 0.00 | 0.00 | 37 | 1015.5 |
| 20260503221308 | 64 | 109 | 0.9 | 0.9 | 0.00 | 0.00 | 0.00 | 36 | 1015.2 |
| 20260503220803 | 65 | 178 | 0.9 | 1.7 | 0.00 | 0.00 | 0.00 | 36 | 1015.4 |
| 20260503220300 | 65 | 153 | 0.0 | 0.9 | 0.00 | 0.00 | 0.00 | 34 | 1015.4 |
| 20260503215757 | 65 | 306 | 1.7 | 2.6 | 0.00 | 0.00 | 0.00 | 35 | 1015.5 |
| 20260503215254 | 66 | 97 | 0.0 | 0.9 | 0.00 | 0.00 | 0.00 | 36 | 1015.4 |
| 20260503214752 | 66 | 36 | 0.9 | 0.9 | 0.00 | 0.00 | 0.00 | 35 | 1015.2 |
| 20260503214249 | 66 | 298 | 1.7 | 1.7 | 0.00 | 0.00 | 0.00 | 33 | 1015.4 |
| 20260503213747 | 66 | 105 | 0.0 | 0.0 | 0.00 | 0.00 | 0.00 | 35 | 1015.4 |
| 20260503213244 | 66 | 2 | 1.7 | 1.7 | 0.00 | 0.00 | 0.00 | 34 | 1015.2 |
| 20260503212740 | 65 | 170 | 0.9 | 0.9 | 0.00 | 0.00 | 0.00 | 34 | 1015.2 |
| 20260503212238 | 65 | 86 | 0.9 | 0.9 | 0.00 | 0.00 | 0.00 | 35 | 1015.4 |
| 20260503211736 | 65 | 95 | 1.7 | 1.7 | 0.00 | 0.00 | 0.00 | 33 | 1015.3 |
| 20260503211232 | 66 | 86 | 0.0 | 0.9 | 0.00 | 0.00 | 0.00 | 35 | 1015.0 |
| 20260503210727 | 65 | 99 | 0.0 | 0.0 | 0.00 | 0.00 | 0.00 | 35 | 1015.3 |
| 20260503210225 | 65 | 150 | 4.3 | 6.1 | 0.00 | 0.00 | 0.00 | 34 | 1015.3 |
| 20260503205720 | 65 | 56 | 0.9 | 0.9 | 0.00 | 0.00 | 0.00 | 34 | 1015.2 |
| 20260503205216 | 65 | 198 | 0.9 | 0.9 | 0.00 | 0.00 | 0.00 | 37 | 1015.2 |
| 20260503204713 | 64 | 222 | 2.6 | 4.3 | 0.00 | 0.00 | 0.00 | 35 | 1015.3 |
| 20260503204211 | 65 | 254 | 2.6 | 2.6 | 0.00 | 0.00 | 0.00 | 33 | 1015.3 |
| 20260503203708 | 65 | 34 | 1.7 | 2.6 | 0.00 | 0.00 | 0.00 | 34 | 1015.2 |
| 20260503203205 | 65 | 288 | 0.9 | 1.7 | 0.00 | 0.00 | 0.00 | 34 | 1015.1 |
| 20260503202702 | 65 | 2 | 3.5 | 4.3 | 0.00 | 0.00 | 0.00 | 34 | 1015.1 |
| 20260503202200 | 65 | 36 | 0.0 | 0.9 | 0.00 | 0.00 | 0.00 | 34 | 1015.0 |
| 20260503201658 | 65 | 153 | 0.9 | 0.9 | 0.00 | 0.00 | 0.00 | 34 | 1015.4 |
| 20260503201155 | 64 | 227 | 2.6 | 2.6 | 0.00 | 0.00 | 0.00 | 35 | 1015.3 |
| 20260503200651 | 64 | 149 | 0.9 | 1.7 | 0.00 | 0.00 | 0.00 | 37 | 1015.4 |
| 20260503200148 | 64 | 64 | 1.7 | 1.7 | 0.00 | 0.00 | 0.00 | 35 | 1015.3 |
| 20260503195645 | 64 | 169 | 2.6 | 4.3 | 0.00 | 0.00 | 0.00 | 35 | 1015.6 |
| 20260503195142 | 63 | 316 | 2.6 | 2.6 | 0.00 | 0.00 | 0.00 | 36 | 1015.8 |
| 20260503194639 | 64 | 225 | 3.5 | 4.3 | 0.00 | 0.00 | 0.00 | 35 | 1015.8 |
| 20260503194134 | 64 | 337 | 2.6 | 2.6 | 0.00 | 0.00 | 0.00 | 35 | 1015.9 |
| 20260503193631 | 66 | 151 | 0.9 | 1.7 | 0.00 | 0.00 | 0.00 | 35 | 1016.0 |
| 20260503193126 | 66 | 77 | 0.9 | 0.9 | 0.00 | 0.00 | 0.00 | 36 | 1015.9 |
| 20260503192622 | 64 | 99 | 0.9 | 1.7 | 0.00 | 0.00 | 0.00 | 37 | 1016.1 |
| 20260503192118 | 64 | 82 | 1.7 | 2.6 | 0.00 | 0.00 | 0.00 | 35 | 1016.1 |
| 20260503191615 | 64 | 82 | 0.9 | 0.9 | 0.00 | 0.00 | 0.00 | 35 | 1015.9 |
| 20260503191112 | 65 | 103 | 0.9 | 1.7 | 0.00 | 0.00 | 0.00 | 35 | 1016.1 |
| 20260503190609 | 63 | 235 | 2.6 | 2.6 | 0.00 | 0.00 | 0.00 | 36 | 1016.3 |
| 20260503190106 | 64 | 159 | 1.7 | 1.7 | 0.00 | 0.00 | 0.00 | 36 | 1016.3 |
| 20260503185603 | 62 | 190 | 2.6 | 4.3 | 0.00 | 0.00 | 0.00 | 37 | 1016.3 |
| 20260503185102 | 63 | 22 | 4.3 | 6.1 | 0.00 | 0.00 | 0.00 | 36 | 1016.2 |
| 20260503184558 | 61 | 235 | 3.5 | 5.2 | 0.00 | 0.00 | 0.00 | 38 | 1016.5 |
| 20260503184055 | 63 | 154 | 0.9 | 0.9 | 0.00 | 0.00 | 0.00 | 36 | 1016.4 |
| 20260503183551 | 62 | 26 | 0.9 | 1.7 | 0.00 | 0.00 | 0.00 | 37 | 1016.4 |
| 20260503183049 | 62 | 314 | 4.3 | 6.1 | 0.00 | 0.00 | 0.00 | 36 | 1016.6 |
| 20260503182547 | 62 | 339 | 2.6 | 2.6 | 0.00 | 0.00 | 0.00 | 36 | 1016.6 |
| 20260503182045 | 62 | 267 | 2.6 | 2.6 | 0.00 | 0.00 | 0.00 | 37 | 1016.5 |
| 20260503181542 | 62 | 84 | 2.6 | 2.6 | 0.00 | 0.00 | 0.00 | 38 | 1016.7 |
| 20260503181038 | 61 | 243 | 2.6 | 5.2 | 0.00 | 0.00 | 0.00 | 39 | 1016.7 |
| 20260503180535 | 63 | 217 | 2.6 | 4.3 | 0.00 | 0.00 | 0.00 | 38 | 1016.5 |
| 20260503180032 | 62 | 265 | 2.6 | 2.6 | 0.00 | 0.00 | 0.00 | 39 | 1016.5 |
| 20260503175530 | 61 | 105 | 1.7 | 1.7 | 0.00 | 0.00 | 0.00 | 42 | 1016.6 |
| 20260503175027 | 60 | 86 | 2.6 | 2.6 | 0.00 | 0.00 | 0.00 | 37 | 1016.6 |
| 20260503174524 | 61 | 122 | 0.9 | 1.7 | 0.00 | 0.00 | 0.00 | 39 | 1016.6 |
| 20260503174020 | 60 | 23 | 2.6 | 2.6 | 0.00 | 0.00 | 0.00 | 38 | 1016.6 |
| 20260503173515 | 61 | 336 | 2.6 | 2.6 | 0.00 | 0.00 | 0.00 | 39 | 1016.8 |
| 20260503173012 | 59 | 46 | 1.7 | 1.7 | 0.00 | 0.00 | 0.00 | 40 | 1017.1 |
| 20260503172510 | 59 | 83 | 1.7 | 1.7 | 0.00 | 0.00 | 0.00 | 40 | 1016.9 |
| 20260503172006 | 60 | 289 | 2.6 | 2.6 | 0.00 | 0.00 | 0.00 | 39 | 1017.2 |
| 20260503171503 | 59 | 105 | 0.0 | 0.9 | 0.00 | 0.00 | 0.00 | 42 | 1016.9 |
| 20260503171001 | 59 | 78 | 2.6 | 2.6 | 0.00 | 0.00 | 0.00 | 40 | 1017.1 |
| 20260503170457 | 60 | 235 | 0.9 | 1.7 | 0.00 | 0.00 | 0.00 | 40 | 1017.0 |
| 20260503150849 | 56 | 259 | 7.8 | 8.7 | 0.00 | 0.00 | 0.00 | 42 | 1017.4 |
| 20260503150345 | 55 | 312 | 6.1 | 7.0 | 0.00 | 0.00 | 0.00 | 42 | 1017.4 |
| 20260503140309 | 53 | 57 | 1.7 | 2.6 | 0.00 | 0.00 | 0.00 | 46 | 1017.2 |
| 20260503131239 | 52 | 81 | 0.9 | 0.9 | 0.00 | 0.00 | 0.00 | 53 | 1017.3 |
| 20260503130737 | 52 | 26 | 2.6 | 2.6 | 0.00 | 0.00 | 0.00 | 52 | 1017.2 |
| 20260503130234 | 52 | 101 | 0.0 | 0.9 | 0.00 | 0.00 | 0.00 | 55 | 1017.3 |
| 20260503120200 | 50 | 86 | 0.9 | 0.9 | 0.00 | 0.00 | 0.00 | 64 | 1016.6 |
| 20260503110627 | 47 | 121 | 0.9 | 0.9 | 0.00 | 0.00 | 0.00 | 66 | 1016.2 |
| 20260503110124 | 47 | 95 | 0.0 | 0.0 | 0.00 | 0.00 | 0.00 | 67 | 1016.1 |
| 20260503081440 | 49 | 106 | 0.0 | 0.0 | 0.00 | 0.00 | 0.00 | 76 | 1013.6 |
| 20260503080937 | 49 | 107 | 0.0 | 0.0 | 0.00 | 0.00 | 0.00 | 76 | 1013.4 |
| 20260503080433 | 49 | 118 | 0.0 | 0.0 | 0.00 | 0.00 | 0.00 | 76 | 1013.4 |
| 20260503072910 | 49 | 89 | 0.0 | 0.0 | 0.00 | 0.00 | 0.00 | 79 | 1013.0 |
| 20260503072407 | 49 | 89 | 0.0 | 0.9 | 0.00 | 0.00 | 0.00 | 79 | 1012.9 |
| 20260503071904 | 49 | 89 | 0.0 | 0.0 | 0.00 | 0.00 | 0.00 | 78 | 1013.0 |
| 20260503071402 | 49 | 89 | 0.0 | 0.0 | 0.00 | 0.00 | 0.00 | 78 | 1012.8 |
| 20260503070857 | 49 | 89 | 0.0 | 0.0 | 0.00 | 0.00 | 0.00 | 77 | 1012.9 |
| 20260503070355 | 49 | 89 | 0.0 | 0.0 | 0.00 | 0.00 | 0.00 | 78 | 1012.7 |
| 20260503060320 | 47 | 89 | 0.0 | 0.0 | 0.00 | 0.00 | 0.00 | 92 | 1012.3 |
| 20260503054808 | 47 | 89 | 0.0 | 0.0 | 0.00 | 0.00 | 0.00 | 91 | 1012.5 |
| 20260503054304 | 47 | 89 | 0.0 | 0.0 | 0.00 | 0.00 | 0.00 | 91 | 1012.4 |
| 20260503053802 | 47 | 89 | 0.0 | 0.0 | 0.00 | 0.00 | 0.00 | 90 | 1012.3 |
| 20260503053301 | 47 | 89 | 0.0 | 0.0 | 0.00 | 0.00 | 0.00 | 90 | 1012.3 |
| 20260503052756 | 47 | 89 | 0.0 | 0.0 | 0.00 | 0.00 | 0.00 | 90 | 1012.2 |
| 20260503052253 | 47 | 89 | 0.0 | 0.0 | 0.00 | 0.00 | 0.00 | 89 | 1012.2 |